Portada
METAR-TAF:

METAR-TAF

Aeroports :

Charleston, Carolina del Sud, Estats Units d'Amèrica

latitud: 32-42-03N, longitud: 080-00-10W, altitud: 5 m

Observació

L'informe es va fer fa 24 minuts, a les 13:35 UTC
Vent 4 kt del Nord
Temperatura 24°C
Humitat 89%
Pressió 1018 hPa
Visibilitat: 14.5 km
Cel clar

METAR: KJZI 241335Z AUTO 36004KT 9SM CLR 24/22 A3005 RMK AO2

Hora: 09:59 (13:59 UTC)


TAF: manca

Observacions i pronòstics meteorològics de més de 4000 aeroports (METAR i TAF).

Les estacions disponibles són els punts grocs i vermells al mapa.

Posi el ratolí al punt desitjat per veure el nom de l'estació.

Feu clic per veure les observacions i els pronòstics meteorològics.

Per canviar el mapa: feu clic els botons verds amb una creu de color negre per apropar; al botó verd amb un guió per allunyar la imatge; o en les fletxes verdes per a mapes adjacents.


METAR-TAF: